Location: Brivio
(45.7333°N, 9.4500°E)
Time: 17:45:06
(UTC+00:00)

Meteor 1-16 Rocket - Pass Details

Date: 18 October 2019
Orbit: 790 x 907 km, 81.2° (Epoch: 22 November)

Event Time Altitude Azimuth Distance (km) Brightness Sun altitude
Rises 17:28:06 0° 188° (S) 3,405 7.5 -10.5°
Reaches altitude 10° 17:30:32 10° 188° (S) 2,456 6.8 -11.0°
Maximum altitude 17:36:06 87° 101° (E) 831 4.1 -11.9°
Drops below altitude 10° 17:41:32 10° 11° (NNE) 2,401 6.4 -12.9°
Sets 17:43:54 0° 12° (NNE) 3,324 7.2 -13.3°
